This demonstration page uses our WeatherBlox Daily Observations layout. Learn more.

Hourly Observations for December 26, 2015

Temp ( °F °C ) Dew Point ( °F °C ) Humidity (%) Winds ( mph kmh ) Pressure ( in mb ) Visibility ( mi km ) Precip ( " mm )
12:15 am 00:15 Cloudy with Light Wintry Mix 28 -2 28 -2.5 96 96 E 17 28 30 1016 3 4.82802 0 0
12:35 am 00:35 Cloudy with Mist and Fog 28 -2 28 -2.5 96 96 E 14 22 30 1016 1.5 2.41401 0 0
12:55 am 00:55 Cloudy with Mist and Fog 29 -1.8 28 -2.5 95 95 E 17 28 30 1016 1 1.60934 0 0
1:15 am 01:15 Cloudy with Mist and Fog 28 -2 28 -2.5 96 96 ENE 16 26 29.97 1015 1 1.60934 0 0
1:35 am 01:35 Cloudy with Mist and Fog 28 -2 28 -2.5 96 96 ENE 14 22 30 1016 1 1.60934 0 0
1:55 am 01:55 Cloudy with Mist and Fog 28 -2 28 -2.5 96 96 ENE 13 20 30 1016 1.25 2.011675 0 0
2:15 am 02:15 Cloudy with Mist and Fog 29 -1.9 28 -2.4 96 96 ENE 12 19 30 1016 1.75 2.816345 0 0
2:35 am 02:35 Cloudy with Mist and Fog 28 -2 28 -2.5 96 96 ENE 15 24 30 1016 2 3.21868 0 0
2:55 am 02:55 Cloudy with Mist and Fog 28 -2 28 -2.5 96 96 ENE 14 22 30 1016 2.5 4.02335 0 0
3:15 am 03:15 Cloudy with Mist and Fog 28 -2 28 -2.5 96 96 ENE 12 19 30 1016 3 4.82802 0 0
3:35 am 03:35 Cloudy with Mist and Fog 28 -2 28 -2.5 96 96 E 16 26 30 1016 4 6.43736 0 0
3:55 am 03:55 Cloudy with Mist and Fog 28 -2 28 -2.5 96 96 ENE 13 20 30 1016 3 4.82802 0 0
4:15 am 04:15 Cloudy with Mist and Fog 29 -1.8 28 -2.3 96 96 ENE 13 20 30 1016 4 6.43736 0 0
4:35 am 04:35 Cloudy with Mist and Fog 29 -1.8 28 -2.3 96 96 ENE 10 17 30 1016 3 4.82802 0 0
4:55 am 04:55 Cloudy with Mist and Fog 29 -1.8 28 -2.3 96 96 ENE 13 20 30.03 1017 4 6.43736 0 0
5:15 am 05:15 Cloudy with Mist and Fog 29 -1.8 28 -2.3 96 96 N 3 6 30.03 1017 4 6.43736 0 0
5:35 am 05:35 Cloudy with Mist and Fog 29 -1.8 28 -2.3 96 96 N 8 13 30.06 1018 4 6.43736 0 0
5:55 am 05:55 Cloudy with Mist and Fog 28 -2 28 -2.5 96 96 N 9 15 30.06 1018 2 3.21868 0 0
6:15 am 06:15 Cloudy with Mist and Fog 28 -2.1 27 -2.6 96 96 N 10 17 30.06 1018 3 4.82802 0 0
6:35 am 06:35 Cloudy with Mist and Fog 28 -2.2 27 -2.7 96 96 N 12 19 30.09 1019 2.5 4.02335 0 0
6:55 am 06:55 Cloudy with Mist and Fog 28 -2.3 27 -2.8 96 96 N 9 15 30.12 1020 1.75 2.816345 0 0
7:15 am 07:15 Cloudy with Mist and Fog 28 -2.5 27 -3 96 96 N 12 19 30.12 1020 1.25 2.011675 0 0
7:35 am 07:35 Cloudy with Mist and Fog 28 -2.5 27 -3 96 96 N 12 19 30.12 1020 0.75 1.207005 0 0
7:55 am 07:55 Cloudy with Mist and Fog 28 -2.5 27 -3 96 96 N 13 20 30.12 1020 0.75 1.207005 0 0
8:15 am 08:15 Cloudy with Mist and Fog 28 -2.5 27 -3 96 96 N 7 11 30.15 1021 1 1.60934 0 0
8:35 am 08:35 Cloudy with Mist and Fog 28 -2.5 27 -3 96 96 N 6 9 30.15 1021 1.5 2.41401 0 0
8:55 am 08:55 Cloudy with Mist and Fog 28 -2.5 27 -3 96 96 NNW 10 17 30.18 1022 2 3.21868 0 0
9:15 am 09:15 Cloudy with Mist and Fog 28 -2.3 27 -2.8 96 96 NNW 9 15 30.18 1022 2.5 4.02335 0 0
9:35 am 09:35 Cloudy with Mist and Fog 28 -2.3 27 -2.8 96 96 N 9 15 30.21 1023 5 8.0467 0 0
9:55 am 09:55 Cloudy 28 -2.2 27 -2.7 96 96 N 10 17 30.21 1023 10 16.0934 0 0
10:15 am 10:15 Cloudy 28 -2 28 -2.5 96 96 N 15 24 30.24 1024 10 16.0934 0 0
10:35 am 10:35 Cloudy 28 -2 28 -2.5 96 96 N 14 22 30.24 1024 10 16.0934 0 0
10:55 am 10:55 Cloudy 29 -1.7 28 -2.3 96 96 N 14 22 30.24 1024 10 16.0934 0 0
11:15 am 11:15 Cloudy 29 -1.5 28 -2.2 95 95 N 13 20 30.24 1024 10 16.0934 0 0
11:35 am 11:35 Cloudy 30 -1.2 28 -2.3 92 92 N 15 24 30.24 1024 10 16.0934 0 0
11:55 am 11:55 Cloudy 30 -1.2 27 -2.8 89 89 N 17 28 30.24 1024 10 16.0934 0 0
12:15 pm 12:15 Cloudy 30 -1.2 27 -3 88 88 N 16 26 30.24 1024 10 16.0934 0 0
12:35 pm 12:35 Cloudy 30 -1.1 26 -3.1 86 86 N 21 33 30.24 1024 10 16.0934 0 0
12:55 pm 12:55 Cloudy 30 -1 26 -3.1 86 86 N 18 30 30.24 1024 10 16.0934 0 0
1:15 pm 13:15 Cloudy 31 -0.8 27 -3 85 85 N 22 35 30.24 1024 10 16.0934 0 0
1:35 pm 13:35 Cloudy 31 -0.6 27 -2.7 86 86 N 23 37 30.24 1024 10 16.0934 0 0
1:55 pm 13:55 Cloudy 31 -0.6 27 -2.6 87 87 N 16 26 30.24 1024 10 16.0934 0 0
2:15 pm 14:15 Cloudy 29 -1.4 26 -3.1 88 88 N 23 37 30.24 1024 10 16.0934 0 0
2:35 pm 14:35 Cloudy 28 -2.1 25 -3.8 88 88 N 26 43 30.24 1024 10 16.0934 0 0
2:55 pm 14:55 Cloudy 26 -3.2 23 -4.8 89 89 N 24 39 30.27 1025 10 16.0934 0 0
3:15 pm 15:15 Cloudy 25 -3.8 22 -5.6 87 87 N 26 43 30.3 1026 10 16.0934 0 0
3:35 pm 15:35 Cloudy 24 -4.3 20 -6.5 85 85 N 25 41 30.33 1027 10 16.0934 0 0
3:55 pm 15:55 Cloudy 23 -4.8 19 -7 85 85 N 22 35 30.36 1028 10 16.0934 0 0
4:15 pm 16:15 Cloudy 22 -5.3 19 -7.5 85 85 N 21 33 30.39 1029 10 16.0934 0 0
4:35 pm 16:35 Cloudy 22 -5.8 18 -8 85 85 N 21 33 30.39 1029 10 16.0934 0 0
4:55 pm 16:55 Cloudy 22 -5.8 18 -8 85 85 N 26 43 30.42 1030 10 16.0934 0 0
5:15 pm 17:15 Cloudy 21 -6.2 17 -8.2 86 86 N 22 35 30.42 1030 10 16.0934 0 0
5:35 pm 17:35 Cloudy 21 -6.2 17 -8.4 85 85 NNW 24 39 30.45 1031 10 16.0934 0 0
5:55 pm 17:55 Cloudy 20 -6.8 16 -9.1 84 84 N 23 37 30.48 1032 10 16.0934 0 0
6:15 pm 18:15 Cloudy 19 -7 15 -9.4 83 83 N 26 43 30.48 1032 10 16.0934 0 0
6:35 pm 18:35 Cloudy 19 -7.1 15 -9.5 83 83 N 24 39 30.5 1033 10 16.0934 0 0
6:55 pm 18:55 Cloudy 19 -7.5 14 -9.9 83 83 N 21 33 30.53 1034 10 16.0934 0 0
7:15 pm 19:15 Cloudy 18 -7.6 14 -9.8 84 84 N 18 30 30.53 1034 10 16.0934 0 0
7:35 pm 19:35 Cloudy 18 -7.7 14 -9.8 85 85 N 20 31 30.53 1034 7 11.26538 0 0
7:55 pm 19:55 Cloudy 18 -7.7 14 -9.8 85 85 NNW 22 35 30.56 1035 10 16.0934 0 0
8:15 pm 20:15 Cloudy 18 -7.6 15 -9.6 86 86 N 23 37 30.56 1035 7 11.26538 0 0
8:35 pm 20:35 Cloudy 19 -7.5 15 -9.5 86 86 N 18 30 30.59 1036 10 16.0934 0 0
8:55 pm 20:55 Cloudy 19 -7.5 15 -9.5 86 86 N 18 30 30.59 1036 10 16.0934 0 0
9:15 pm 21:15 Cloudy 19 -7.2 16 -9 87 87 N 18 30 30.59 1036 10 16.0934 0 0
9:35 pm 21:35 Cloudy 19 -7.2 16 -9 87 87 N 17 28 30.59 1036 10 16.0934 0 0
9:55 pm 21:55 Cloudy 19 -7.1 17 -8.5 90 90 N 16 26 30.59 1036 10 16.0934 0 0
10:15 pm 22:15 Cloudy 19 -7 17 -8.4 90 90 N 15 24 30.62 1037 10 16.0934 0 0
10:35 pm 22:35 Cloudy 19 -7 17 -8.6 89 89 N 16 26 30.62 1037 10 16.0934 0 0
10:55 pm 22:55 Cloudy 20 -6.7 17 -8.6 87 87 N 15 24 30.62 1037 10 16.0934 0 0
11:15 pm 23:15 Cloudy 20 -6.4 17 -8.4 86 86 N 16 26 30.62 1037 10 16.0934 0 0
11:35 pm 23:35 Cloudy 21 -6.2 17 -8.2 86 86 N 17 28 30.62 1037 10 16.0934 0 0
11:55 pm 23:55 Cloudy 20 -6.5 17 -8.5 86 86 N 21 33 30.62 1037 10 16.0934 0 0

Powered by AerisWeather